Flag for Germany Weather past 2 weeks in Merseburg, Saxony-Anhalt, Germany

Now
72 °F

Clear.


Feels Like: 75 °F
Forecast: 58 / 66 °F
Wind: 3 mph from North

Location: Leipzig-Schkeuditz

Current Time: Aug 27, 2015 at 9:48:02 PM

Latest Report: Aug 27, 2015 at 9:20 PM


Visibility: 10 mi

Pressure: 29.80 "Hg

Humidity: 69%

Dew point: 61 °F

Location of MerseburgLocation

Historic Weather in Merseburg — Graph

°F

Merseburg temperature yesterday

Maximum temperature yesterday: 81 °F (at 5:20 PM)
Minimum temperature yesterday: 57 °F (at 12:50 AM)
Average temperature yesterday: 68 °F

Past Weeks' High & Low Weather Summary

 TemperatureHumidityPressure
High95 °F (Aug 14, 3:50 PM)100% (Aug 16, 1:20 AM)30.30 "Hg (Aug 16, 1:20 AM)
Low54 °F (Aug 21, 4:20 AM)23% (Aug 14, 5:20 PM)29.68 "Hg (Aug 14, 5:20 PM)
Average68 °F76%29.97 "Hg
* Reported Aug 12 8:20 PM — Aug 27 8:50 PM, Merseburg, Weather by CustomWeather, © 2015

Note: Actual official high and low records may vary slightly from our data, if they occured in-between our weather recording intervals... More about our weather records

Advertising

Merseburg weather history for previous 24 hours

 ConditionsComfort  
Time TempWeatherWind HumidityBarometerVisibility
8:50 PM
Thu, Aug 27
72 °FSunny.5 mph73%29.77 "Hg10 mi
8:20 PM72 °FSunny.7 mph73%29.77 "Hg10 mi
7:50 PM75 °FSunny.5 mph61%29.77 "Hg10 mi
7:20 PM75 °FPassing clouds.5 mph61%29.80 "HgN/A
6:50 PM77 °FSunny.5 mph61%29.80 "Hg10 mi
6:20 PM77 °FSunny.6 mph57%29.80 "Hg10 mi
5:50 PM77 °FPassing clouds.7 mph57%29.80 "HgN/A
5:20 PM79 °FPartly sunny.6 mph51%29.83 "HgN/A
4:50 PM79 °FPartly sunny.7 mph54%29.83 "HgN/A
4:20 PM77 °FSunny.5 mph54%29.86 "Hg10 mi
3:50 PM77 °FSunny.5 mph51%29.86 "Hg10 mi
3:20 PM77 °FBroken clouds.6 mph54%29.86 "HgN/A
2:50 PM79 °FBroken clouds.12 mph48%29.89 "HgN/A
2:20 PM81 °FScattered clouds.8 mph48%29.89 "HgN/A
1:50 PM81 °FScattered clouds.7 mph45%29.89 "HgN/A
1:20 PM81 °FScattered clouds.10 mph45%29.89 "HgN/A
12:50 PM81 °FSunny.14 mph45%29.89 "Hg10 mi
12:20 PM79 °FScattered clouds.13 mph48%29.89 "HgN/A
11:50 AM79 °FScattered clouds.15 mph48%29.89 "HgN/A
11:20 AM79 °FSunny.13 mph45%29.89 "Hg10 mi
10:50 AM77 °FSunny.13 mph51%29.89 "Hg10 mi
10:20 AM75 °FSunny.13 mph50%29.89 "Hg10 mi
9:50 AM73 °FSunny.12 mph50%29.89 "Hg10 mi
9:20 AM70 °FSunny.13 mph57%29.89 "Hg10 mi
8:50 AM68 °FSunny.13 mph56%29.86 "Hg10 mi
8:20 AM66 °FSunny.12 mph60%29.89 "Hg10 mi
7:50 AM64 °FSunny.13 mph60%29.86 "Hg10 mi
7:20 AM63 °FSunny.13 mph64%29.86 "Hg10 mi
6:50 AM63 °FClear.12 mph64%29.86 "Hg10 mi
6:20 AM63 °FClear.12 mph64%29.86 "Hg10 mi
5:50 AM63 °FClear.12 mph64%29.86 "Hg10 mi
5:20 AM61 °FClear.13 mph68%29.86 "Hg10 mi
4:50 AM63 °FClear.12 mph64%29.86 "Hg10 mi
4:20 AM63 °FClear.13 mph68%29.89 "Hg10 mi
3:50 AM63 °FClear.13 mph68%29.89 "Hg10 mi
3:20 AM63 °FClear.13 mph73%29.89 "Hg10 mi
2:50 AM63 °FClear.13 mph73%29.89 "Hg10 mi
2:20 AM63 °FClear.12 mph73%29.89 "Hg10 mi
1:50 AM63 °FClear.12 mph73%29.92 "Hg10 mi
1:20 AM63 °FClear.9 mph77%29.92 "Hg10 mi
12:50 AM63 °FClear.8 mph77%29.92 "Hg10 mi
11:50 PM
Wed, Aug 26
64 °FClear.9 mph73%29.92 "Hg10 mi
11:20 PM64 °FClear.8 mph73%29.95 "Hg10 mi
10:50 PM64 °FClear.8 mph68%29.95 "Hg10 mi
10:20 PM64 °FClear.8 mph68%29.95 "Hg10 mi
9:50 PM68 °FPassing clouds.8 mph60%29.95 "HgN/A
9:20 PM68 °FClear.6 mph60%29.95 "Hg10 mi
Weather by CustomWeather, © 2015

See weather overviewHow to use our weather pages